Volver al catálogo

STARLINK-3639

ActivoComunicacionesVLEO
NORAD 51789·PAYLOAD·🇺🇸 United States

Lanzado Feb 25, 2022 desde Vandenberg Space Force Base

Loading…

Próximos Pases (próximas 24 horas)

TLE

ActualizadoSource: CelesTrak SupGP

Época: Sep 15, 2026, 02:15 UTC

1 51789C 22017X   26258.09423611 -.00042441  00000+0 -12541-2 0  2580
2 51789  53.1568 205.3247 0001326  89.7406 339.1771 15.34407660    17

Sigue STARLINK-3639 en tiempo real con AllMySat

Download on the App Store